Location: La Fredeussais
(48.1780°N, 1.3980°W)
Time: 04:29:58
(UTC+00:00)

X-37B - Pass Details

Date: 07 August 2021
Orbit: 381 x 393 km, 45.0° (Epoch: 29 August)

Event Time Altitude Azimuth Distance (km) Brightness Sun altitude
Exits shadow 04:05:33 - 259° (W) 1,542 3.0 -7.1°
Reaches altitude 10° 04:05:54 10° 258° (WSW) 1,397 2.8 -7.1°
Maximum altitude 04:08:56 46° 183° (S) 520 1.0 -6.7°
Drops below altitude 10° 04:11:58 10° 108° (ESE) 1,397 4.0 -6.2°
Sets 04:14:04 0° 102° (ESE) 2,251 5.2 -5.9°
